Weather History for Casper, WY

Change the Weather History Date:

Thursday, March 7, 2013

  Actual Average Record
Temperature  
Mean Temperature 41 °F 33 °F  
Max Temperature 53 °F 45 °F 64 °F (1986)
Min Temperature 28 °F 20 °F -6 °F (1998)
Degree Days  
Heating Degree Days 24 32  
Month to date heating degree days 223 233  
Since 1 July heating degree days 5273 5681  
Cooling Degree Days 0 0  
Month to date cooling degree days 0 0  
Year to date cooling degree days 0 0  
Moisture  
Dew Point 20 °F    
Average Humidity 48    
Maximum Humidity 69    
Minimum Humidity 26    
Precipitation  
Precipitation 0.00 in 0.02 in 0.32 in (2014)
Month to date precipitation T 0.15  
Year to date precipitation 0.77 1.23  
Snow  
Snow 0.00 in 0.30 in - ()
Month to date snowfall 0.4 2.2  
Since 1 July snowfall 33.1 51.6  
Snow Depth 0.00 in    
Sea Level Pressure  
Sea Level Pressure 29.91 in    
Wind  
Wind Speed 10 mph (WSW)    
Max Wind Speed 20 mph    
Max Gust Speed 22 mph    
Visibility 10 miles    
Events      
T = Trace of Precipitation, MM = Missing Value Source: NWS Daily Summary

Daily Weather History Graph

Daily Weather History Graph

Search for Another Location

Airport:

Trip Planner

Search our weather history database for the weather conditions in past years. The results will help you decide how hot, cold, wet, or windy it might be!

Date:

Astronomy

Mar. 07, 2013 Rise Set
Actual Time 6:31 AM MST 6:03 PM MST
Civil Twilight 6:02 AM MST 6:31 PM MST
Nautical Twilight 5:30 AM MST 7:04 PM MST
Astronomical Twilight 4:57 AM MST 7:37 PM MST
Moon 3:38 AM MST (3/7) 1:49 PM MST (3/7)
Length of Visible Light 12h 28m
Length of Day
11h 31m
Waning Crescent, 19% of the Moon is Illuminated
Mar 7
Waning Crescent
Mar 11
New
Mar 19
First Quarter
Mar 27
Full
Apr 2
Last Quarter

Hourly Weather History & Observations

Time (MST) Temp. Windchill Dew Point Humidity Pressure Visibility Wind Dir Wind Speed Gust Speed Precip Events Conditions
12:53 AM 35.1 °F 27.4 °F 21.0 °F 57% 29.76 in 10.0 mi WSW 10.4 mph - N/A   Clear
1:53 AM 33.1 °F 26.1 °F 19.9 °F 59% 29.78 in 10.0 mi WSW 8.1 mph - N/A   Clear
2:53 AM 36.0 °F 28.5 °F 19.9 °F 52% 29.78 in 10.0 mi SW 10.4 mph - N/A   Clear
3:53 AM 33.1 °F 24.9 °F 19.9 °F 59% 29.82 in 10.0 mi WSW 10.4 mph - N/A   Clear
4:53 AM 28.9 °F 21.1 °F 19.9 °F 69% 29.86 in 10.0 mi WSW 8.1 mph - N/A   Clear
5:53 AM 34.0 °F 24.6 °F 23.0 °F 64% 29.89 in 10.0 mi SW 13.8 mph - N/A   Clear
6:53 AM 33.1 °F 24.4 °F 19.0 °F 56% 29.91 in 10.0 mi WSW 11.5 mph - N/A   Clear
7:53 AM 37.9 °F 30.0 °F 19.0 °F 47% 29.91 in 10.0 mi SW 12.7 mph - N/A   Clear
8:53 AM 43.0 °F 35.4 °F 16.0 °F 34% 29.91 in 10.0 mi WSW 16.1 mph - N/A   Clear
9:53 AM 46.0 °F 39.6 °F 19.9 °F 35% 29.91 in 10.0 mi SSW 15.0 mph - N/A   Clear
10:53 AM 48.0 °F - 21.9 °F 36% 29.92 in 10.0 mi South 15.0 mph - N/A   Clear
11:53 AM 50.0 °F - 24.1 °F 36% 29.93 in 10.0 mi SSW 12.7 mph - N/A   Scattered Clouds
12:53 PM 50.0 °F - 23.0 °F 35% 29.92 in 10.0 mi SW 12.7 mph - N/A   Clear
1:53 PM 50.0 °F - 21.9 °F 33% 29.91 in 10.0 mi SW 11.5 mph - N/A   Clear
2:53 PM 51.1 °F - 19.9 °F 29% 29.89 in 10.0 mi SSW 12.7 mph - N/A   Clear
3:53 PM 52.0 °F - 18.0 °F 26% 29.89 in 10.0 mi SW 11.5 mph - N/A   Clear
4:53 PM 50.0 °F - 19.9 °F 31% 29.92 in 10.0 mi SSW 3.5 mph - N/A   Clear
5:53 PM 45.0 °F - 19.0 °F 36% 29.93 in 10.0 mi Calm Calm - N/A   Clear
6:53 PM 37.0 °F 33.3 °F 18.0 °F 46% 29.98 in 10.0 mi NNW 4.6 mph - N/A   Clear
7:53 PM 35.1 °F 27.4 °F 18.0 °F 50% 29.99 in 10.0 mi North 10.4 mph - N/A   Scattered Clouds
8:53 PM 32.0 °F - 18.0 °F 56% 29.99 in 10.0 mi Calm Calm - N/A   Mostly Cloudy
9:53 PM 32.0 °F 27.5 °F 19.9 °F 61% 29.99 in 10.0 mi North 4.6 mph - N/A   Overcast
10:53 PM 30.0 °F 21.1 °F 19.0 °F 64% 29.97 in 10.0 mi NW 10.4 mph - N/A   Mostly Cloudy
11:53 PM 28.9 °F 19.2 °F 19.0 °F 67% 29.94 in 10.0 mi North 11.5 mph - N/A   Clear